Tracking 28794 objects as of 21-Apr-2024
HD Live streaming from Space Station
objects crossing your sky now

M2-A

Track M2-A now!
10-day predictions


NORAD ID: 47967
Int'l Code: 2021-023C
Perigee: 499.2 km
Apogee: 502.8 km
Inclination: 45.0 °
Period: 94.5 minutes
Semi major axis: 6871 km
RCS: Unknown
Launch date: March 22, 2021
Source: United States (US)
Launch site: Rocket Lab Launch Complex (RLLC)
Your satellite tracking list
Your tracking list is empty




NASA's NSSDC Master Catalog

Two Line Element Set (TLE):
1 47967U 21023C   24112.73546483  .00045925  00000-0  18625-2 0  9990
2 47967  44.9992 241.8805 0002579 186.3455 312.4491 15.23983349170150
Source of the keplerian elements: AFSPC